Location: Westfield
(45.3617°N, 66.2417°W)
Time: 15:11:33
(UTC-04:00)

ISS - Visible Passes

Search period start: 18 January 2018 00:00
Search period end: 28 January 2018 00:00
Orbit: 402 x 407 km, 51.6° (Epoch: 18 January)

Date Brightness Start Highest point End Pass type
(mag) Time Alt. Az. Time Alt. Az. Time Alt. Az.
24 Jan -1.4 18:40:42 10° SSE 18:41:22 11° SE 18:41:22 11° SE visible
25 Jan -2.4 19:22:14 10° SW 19:24:14 30° S 19:24:14 30° S visible
26 Jan -2.4 18:30:26 10° SSW 18:33:05 24° SE 18:34:18 19° ESE visible
26 Jan -0.8 20:06:08 10° WSW 20:06:58 16° WSW 20:06:58 16° WSW visible
27 Jan -4.0 19:13:42 10° WSW 19:16:58 88° SSE 19:16:58 88° SSE visible
